Home   Weather   Las Cruces   Past weeks

Flag for USA Past Weather in Las Cruces, New Mexico, USA — Yesterday and Last 2 Weeks

Now
45 °F

Clear.


Feels Like: 39 °F
Forecast: 39 / 56 °F
Wind: 10 mph from Southwest

Location: Las Cruces International

Current Time: Dec 7, 2016 at 3:38:41 am

Latest Report: Dec 7, 2016 at 3:15 am


Visibility: 10 mi

Pressure: 29.96 "Hg (25.92 "Hg at 1187m altitude)

Humidity: 56%

Dew Point: 29 °F

Location of Las CrucesLocation

Past Weather in Las Cruces — Graph

°F

Las Cruces Temperature Yesterday

Maximum temperature yesterday: 60 °F (at 1:55 pm)
Minimum temperature yesterday: 40 °F (at 5:55 am)
Average temperature yesterday: 49 °F

High & Low Weather Summary for the Past Weeks

 TemperatureHumidityPressure
High63 °F (Nov 24, 1:35 pm)91% (Nov 22, 6:55 am)30.43 "Hg (Nov 22, 6:55 am)
Low20 °F (Nov 30, 6:55 am)11% (Nov 29, 2:35 pm)29.71 "Hg (Nov 28, 4:15 pm)
Average46 °F46%30.04 "Hg
* Reported Nov 22 2:15 am — Dec 7 2:15 am, Las Cruces, Weather by CustomWeather, © 2016

Note: Actual official high and low records may vary slightly from our data, if they occured in-between our weather recording intervals... More about our weather records

Advertising

Las Cruces Weather History for the Previous 24 Hours

Scroll right to see more
 ConditionsComfort  
Time TempWeatherWind HumidityBarometerVisibility
2:15 am
Wed, Dec 7
44 °FClear.10 mph59%29.97 "Hg10 mi
1:55 am44 °FClear.9 mph59%29.97 "Hg10 mi
1:35 am44 °FClear.8 mph59%29.97 "Hg10 mi
1:15 am45 °FClear.9 mph57%29.96 "Hg10 mi
12:55 am45 °FClear.10 mph58%29.96 "Hg10 mi
12:35 am45 °FClear.9 mph58%29.96 "Hg10 mi
12:15 am50 °FClear.10 mph47%29.95 "Hg10 mi
11:55 pm
Tue, Dec 6
51 °FClear.12 mph44%29.96 "Hg10 mi
11:35 pm51 °FClear.10 mph45%29.96 "Hg10 mi
11:15 pm50 °FClear.9 mph48%29.95 "Hg10 mi
10:55 pm48 °FClear.9 mph52%29.96 "Hg10 mi
10:35 pm45 °FClear.9 mph56%29.95 "Hg10 mi
10:15 pm45 °FClear.8 mph56%29.95 "Hg10 mi
9:55 pm45 °FClear.6 mph56%29.95 "Hg10 mi
9:15 pm46 °FClear.6 mph53%29.94 "Hg10 mi
8:55 pm44 °FClear.8 mph57%29.95 "Hg10 mi
8:35 pm43 °FClear.5 mph59%29.95 "Hg10 mi
8:15 pm44 °FClear.6 mph56%29.94 "Hg10 mi
7:55 pm46 °FClear.8 mph54%29.94 "Hg10 mi
7:15 pm47 °FClear.7 mph50%29.94 "Hg10 mi
6:55 pm48 °FClear.3 mph49%29.94 "Hg10 mi
6:15 pm50 °FClear.6 mph45%29.93 "Hg10 mi
5:55 pm52 °FClear.8 mph42%29.92 "Hg10 mi
5:35 pm52 °FClear.9 mph41%29.92 "Hg10 mi
5:15 pm55 °FClear.7 mph37%29.91 "Hg10 mi
4:55 pm57 °FSunny.9 mph34%29.91 "Hg10 mi
4:35 pm58 °FSunny.15 mph33%29.92 "Hg10 mi
4:15 pm58 °FSunny.10 mph34%29.92 "Hg10 mi
3:55 pm58 °FScattered clouds.17 mph35%29.91 "Hg10 mi
3:35 pm59 °FPartly sunny.17 mph35%29.91 "Hg10 mi
3:15 pm58 °FScattered clouds.17 mph35%29.91 "Hg10 mi
2:55 pm59 °FSunny.22 mph34%29.92 "Hg10 mi
2:35 pm58 °FSunny.17 mph35%29.92 "Hg10 mi
2:15 pm58 °FSunny.13 mph35%29.93 "Hg10 mi
1:55 pm60 °FSunny.15 mph32%29.94 "Hg10 mi
1:15 pm58 °FSunny.7 mph35%29.95 "Hg10 mi
12:55 pm57 °FSunny.8 mph40%29.96 "Hg10 mi
12:35 pm56 °FSunny.10 mph40%29.97 "Hg10 mi
12:15 pm55 °FSunny.7 mph44%29.98 "Hg10 mi
10:55 am52 °FSunny.12 mph47%30.02 "Hg10 mi
10:35 am51 °FSunny.12 mph49%30.03 "Hg10 mi
10:15 am50 °FSunny.14 mph50%30.03 "Hg10 mi
9:55 am50 °FSunny.14 mph51%30.03 "Hg10 mi
9:35 am50 °FSunny.13 mph52%30.03 "Hg10 mi
9:15 am49 °FSunny.15 mph52%30.02 "Hg10 mi
8:55 am49 °FSunny.13 mph53%30.02 "Hg10 mi
8:35 am49 °FSunny.14 mph52%30.01 "Hg10 mi
8:15 am46 °FSunny.14 mph56%30.01 "Hg10 mi
7:55 am44 °FSunny.14 mph59%30.00 "Hg10 mi
7:35 am43 °FSunny.13 mph60%30.00 "Hg10 mi
7:15 am46 °FSunny.16 mph57%29.99 "Hg10 mi
6:55 am42 °FSunny.15 mph60%29.98 "Hg10 mi
6:35 am41 °FClear.15 mph59%29.98 "Hg10 mi
6:15 am41 °FClear.14 mph54%29.98 "Hg10 mi
5:55 am40 °FClear.15 mph49%29.97 "Hg10 mi
5:35 am41 °FClear.10 mph42%29.98 "Hg10 mi
5:15 am44 °FClear.10 mph36%29.97 "Hg10 mi
4:55 am45 °FClear.14 mph33%29.97 "Hg10 mi
4:35 am43 °FClear.7 mph37%29.98 "Hg10 mi
4:15 am46 °FClear.7 mph31%29.97 "Hg10 mi
3:55 am45 °FClear.8 mph33%29.97 "Hg10 mi
3:35 am46 °FClear.7 mph32%29.97 "Hg10 mi
3:15 am46 °FClear.12 mph33%29.97 "Hg10 mi
Weather by CustomWeather, © 2016

See weather overviewHow to use our weather pages